Location: Bergen
(60.3910°N, 5.3250°E)
Time: 11:03:38
(UTC+02:00)

ISS - Pass Details

Date: 25 March 2019
Orbit: 408 x 410 km, 51.6° (Epoch: 21 April)

Event Time Altitude Azimuth Distance (km) Brightness Sun altitude
Rises 21:49:05 0° 242° (WSW) 2,336 0.3 -19.0°
Reaches altitude 10° 21:51:35 10° 223° (SW) 1,475 -1.0 -19.3°
Enters shadow 21:51:50 11° 219° (SW) 1,403 -1.2 -19.3°
